Home   Weather   Asheville   Past weeks
Flag for USA

Past Weather in Asheville, North Carolina, USA — Yesterday and Last 2 Weeks

Now
76 °F

Light rain. More clouds than sun.


Feels Like: 77 °F
Forecast: 82 / 68 °F
Wind: 5 mph from West

Location: Asheville Regional Airport

Current Time: Jul 22, 2019 at 5:18:24 pm

Latest Report: Jul 22, 2019 at 3:54 pm


Visibility: 6 mi

Pressure: 29.96 "Hg (27.81 "Hg at 647m altitude)

Humidity: 74%

Dew Point: 67 °F

Location of AshevilleLocation

Past Weather in Asheville — Graph

°F

Asheville Temperature Yesterday

Maximum temperature yesterday: 87 °F (at 12:54 pm)
Minimum temperature yesterday: 68 °F (at 7:01 am)
Average temperature yesterday: 76 °F

High & Low Weather Summary for the Past Weeks

 TemperatureHumidityPressure
High90 °F (Jul 8, 3:14 pm)97% (Jul 16, 2:08 am)30.26 "Hg (Jul 16, 2:08 am)
Low65 °F (Jul 17, 7:37 am)42% (Jul 8, 3:14 pm)29.85 "Hg (Jul 8, 5:54 pm)
Average75 °F77%30.05 "Hg
* Reported Jul 7 3:54 pm — Jul 22 3:54 pm, Asheville. Weather by CustomWeather, © 2019

Note: Actual official high and low records may vary slightly from our data, if they occured in-between our weather recording intervals... More about our weather records

Advertising

Asheville Weather History for the Previous 24 Hours

Scroll right to see more
 ConditionsComfort  
Time TempWeatherWind HumidityBarometerVisibility
3:54 pm
Mon, Jul 22
76 °FLight rain. More clouds than sun.5 mph74%29.96 "Hg6 mi
3:23 pm78 °FThundershowers. Mostly cloudy.9 mph71%30.02 "Hg10 mi
3:08 pm81 °FThunderstorms. Partly sunny.9 mph67%30.02 "Hg10 mi
2:54 pm81 °FThundershowers. Partly sunny.12 mph67%29.93 "Hg9 mi
1:54 pm85 °FThunderstorms. Passing clouds.13 mph57%29.94 "Hg10 mi
12:54 pm85 °FPassing clouds.9 mph55%29.95 "Hg10 mi
11:54 am81 °FSunny.N/A65%29.97 "Hg10 mi
10:54 am79 °FSunny.No wind67%29.98 "Hg10 mi
9:54 am76 °FSunny.6 mph72%29.99 "Hg10 mi
8:54 am71 °FSunny.No wind84%30.02 "Hg10 mi
8:08 am68 °FFog.3 mph96%30.09 "Hg1 mi
7:14 am69 °FFog.No wind93%30.08 "Hg3 mi
6:54 am68 °FFog.No wind96%29.99 "Hg1 mi
6:38 am68 °FFog.No wind93%30.07 "Hg2 mi
5:54 am69 °FLow clouds.No wind93%29.98 "Hg7 mi
5:37 am69 °FPassing clouds.6 mph90%30.05 "Hg8 mi
4:54 am69 °FClear.5 mph93%29.98 "Hg8 mi
3:54 am70 °FClear.No wind90%29.98 "Hg8 mi
2:54 am71 °FClear.No wind90%29.98 "Hg10 mi
1:54 am72 °FClear.No wind87%29.99 "Hg10 mi
12:54 am72 °FClear.3 mph87%30.00 "Hg10 mi
11:54 pm
Sun, Jul 21
74 °FClear.No wind85%30.00 "Hg10 mi
10:54 pm75 °FPassing clouds.5 mph82%30.00 "Hg10 mi
9:54 pm77 °FPassing clouds.No wind74%30.00 "Hg10 mi
8:54 pm77 °FPassing clouds.5 mph77%29.99 "Hg10 mi
7:54 pm80 °FPartly sunny.No wind69%29.99 "Hg10 mi
6:54 pm81 °FSunny.6 mph67%29.97 "Hg10 mi
6:28 pm83 °FThundershowers. Passing clouds.12 mph65%30.05 "Hg10 mi
5:54 pm81 °FPassing clouds.6 mph69%29.97 "Hg10 mi
Weather by CustomWeather, © 2019

See weather overview